Vertical_Velocity
0 0 -3 -6 -3 -1 -0 2 0 -0 3 1 -1 0 -2 -1 -0 -0 1 2 -1 -1 -2 -1 -0 0 -0 -2 -1 0 -2 -2 1 13 3 -4 1 0 7 4 -6 -8 -7
2 3 -1 -4 -3 -1 4 3 2 1 3 2 4 3 2 1 1 0 -2 -2 -2 1 4 -2 -2 2 1 3 -2 -2 1 -1 7 -2 4 7 2 -2 -10 4 -3 -9 -14
-0 -2 -1 -4 0 0 6 4 -0 6 -0 2 6 2 -2 -1 -3 -2 -4 -1 2 -0 1 0 -1 -1 0 -0 2 3 -3 -3 -2 16 -8 2 -9 2 7 -7 4 -15 -11
-3 3 7 -4 1 -0 -2 3 10 2 11 12 -0 2 1 -1 -0 -3 -2 -5 3 1 0 -2 0 0 1 1 -2 3 -8 12 8 10 3 2 2 -2 9 1 0 -9 9
-0 0 -1 -3 2 4 3 1 10 9 4 8 -3 -2 2 1 -4 -1 -2 -5 -2 1 9 5 2 1 4 7 1 -7 15 3 7 1 4 5 7 17 -1 4 8 14 7
0 2 0 1 3 5 3 2 5 4 0 4 -2 -2 0 1 3 -1 5 -2 2 -3 3 2 0 1 4 -1 -3 0 1 3 8 5 5 -4 -2 -17 -2 1 7 -19 5
0 -1 -1 -2 1 1 1 -0 -4 -1 2 -1 -2 0 -3 1 1 3 2 5 3 -1 -1 2 2 8 7 -2 -1 7 1 2 -2 -0 1 2 2 8 0 3 -11 -12 -2
-1 0 -2 3 2 1 4 2 0 2 5 -1 -5 -1 -8 -6 21 2 -5 8 -2 -2 -2 7 -0 2 2 2 2 -3 8 11 1 -0 -1 4 2 2 -1 -6 2 5 -2
1 1 -3 -3 3 -1 -1 -1 2 -8 -1 2 -8 5 -17 6 -7 0 -3 -1 3 0 3 -1 0 3 4 7 9 11 15 11 4 -1 6 1 -2 1 2 0 -2 6 1
-0 -1 -2 -2 -0 -2 -2 -3 -2 -4 -3 -5 6 -2 -2 -5 -2 -4 3 6 3 2 1 -3 -5 -5 -2 -2 4 2 9 2 -0 11 20 2 1 -1 -1 -3 3 2 3
-3 -4 -4 -4 -3 -2 -1 -2 1 0 1 1 -2 -1 1 1 -1 -2 -3 -2 2 -0 0 -2 -1 1 -2 -5 -3 -3 -2 -0 -4 1 -4 12 9 16 4 -5 7 -2 4
-2 -0 -4 -4 -4 -1 2 1 2 2 0 1 1 3 4 1 0 2 -1 -3 -1 -0 3 -2 -1 -1 -1 2 0 -1 0 2 3 3 -3 -3 -2 2 3 -3 28 26 19
-3 -2 -1 0 2 2 2 2 1 0 -0 -1 -1 -1 -1 1 1 1 -2 -2 -1 -3 -4 -5 -4 -5 -7 -3 -4 -1 -1 -2 1 -1 2 0 -2 -4 -4 -4 -1 4 4
-0 1 1 0 -1 -2 0 1 1 2 -0 -1 0 0 -0 -0 0 -2 -3 -1 -1 -3 -4 -2 -2 -3 -1 1 -4 -1 -1 1 -1 -2 -2 -2 -0 -0 -1 -2 0 -1 -2
-1 -2 -1 1 2 0 -2 -4 -4 -3 -2 -4 -4 -2 -2 -4 -2 2 2 2 2 3 4 2 4 7 3 -2 1 2 -1 -3 -3 -1 -1 1 2 0 -1 -1 -1 -2 1
0 0 -0 0 -0 1 1 0 1 0 0 1 2 4 4 3 -0 -3 -5 -6 -4 -6 -7 -6 -8 -8 -8 -7 -5 -4 -2 0 2 0 -1 -2 1 2 2 5 3 1 -3
-2 -2 -1 -1 -0 1 3 3 3 2 2 2 2 -1 -2 -1 -1 1 1 1 -1 0 1 0 -0 -1 -1 -4 -5 -5 -4 -4 -5 -6 -6 -3 -0 -2 -2 0 2 4 6
-2 -2 0 2 2 0 -0 1 2 2 3 2 -1 -2 -4 -5 -4 -3 -1 -1 0 0 -0 1 1 2 2 0 1 1 -0 -2 -2 -2 -3 -2 -4 -0 -2 -2 -3 -3 -2
3 2 0 -2 -1 -1 -2 -3 -4 -4 -5 -5 -3 -1 -2 -1 0 1 -0 -0 -3 -2 -4 -4 -4 -4 -5 -2 -3 -3 -4 -4 -0 3 3 4 1 1 0 0 -1 -2 -3
1 1 1 -0 0 -1 -0 -1 -3 -2 -1 1 2 0 -0 0 -1 -1 -0 -0 -0 -1 -0 -3 -0 -1 -2 1 1 2 1 -1 -2 -4 -4 -1 -2 -6 -2 1 2 -1 -4
0 -0 -1 -2 -3 -2 -2 -3 -1 -0 -1 -2 -2 0 1 -2 -1 -3 -0 -4 -3 -2 -1 -1 -1 2 1 -3 -4 -3 -3 -1 -3 -0 -0 -0 -0 2 1 1 -0 2 -3
2 1 -1 1 1 -0 1 2 2 3 3 3 1 -1 0 2 1 2 0 1 1 -0 -1 -0 -1 0 0 2 -2 -2 1 0 -1 -6 -5 -4 1 1 3 1 1 -0 -0
-3 1 2 2 -0 -3 -1 0 -0 -1 -2 -2 -2 -1 -0 1 -1 -2 -0 -3 -2 -1 -2 -4 -5 -8 -2 -2 -2 -5 -5 -0 1 1 1 -3 -7 -7 -4 3 2 -1 -2
1 -0 -2 -4 -4 -5 -3 -2 -1 -1 -2 -3 -2 -1 -0 -1 0 1 -1 -1 -1 -1 -1 -1 -1 -1 -4 -2 -1 -1 -1 -2 -3 1 0 2 -2 -1 -2 -2 -3 -3 -4
-2 -3 -2 4 7 6 0 -2 -2 -2 -1 0 -0 0 -1 -1 -1 1 -1 -0 1 2 -2 -2 1 -0 -4 -3 1 6 1 1 3 8 2 1 1 2 -0 3 -0 -1 -2
2 7 3 -2 -2 2 4 2 0 -1 -2 -3 -3 -2 -1 -1 -2 -1 -6 5 -0 -4 -1 1 4 -4 1 1 -3 -0 -2 -2 -0 -1 1 1 2 2 1 1 2 0 -3
Height
1487 1484 1479 1475 1472 1468 1467 1467 1467 1470 1473 1474 1476 1478 1480 1483 1485 1485 1487 1488 1487 1487 1486 1485 1485 1484 1484 1484 1485 1486 1486 1488 1489 1492 1492 1493 1495 1496 1498 1499 1501 1505 1507
1486 1482 1476 1473 1471 1468 1465 1463 1463 1465 1468 1470 1472 1474 1475 1477 1478 1479 1480 1481 1481 1480 1479 1478 1477 1476 1476 1477 1477 1477 1478 1479 1480 1482 1485 1485 1489 1487 1490 1490 1492 1495 1498
1486 1481 1475 1473 1470 1467 1463 1460 1461 1462 1464 1466 1468 1469 1471 1472 1474 1475 1475 1475 1473 1472 1471 1470 1469 1468 1468 1467 1468 1469 1468 1470 1473 1470 1476 1477 1473 1481 1481 1481 1484 1490 1493
1487 1482 1474 1472 1470 1467 1463 1460 1459 1459 1461 1463 1464 1466 1466 1468 1469 1469 1469 1468 1467 1465 1463 1461 1459 1459 1459 1458 1458 1458 1458 1459 1458 1463 1464 1466 1470 1471 1474 1474 1477 1482 1485
1487 1481 1474 1473 1470 1467 1463 1461 1459 1458 1460 1460 1460 1462 1463 1463 1465 1465 1465 1463 1460 1457 1454 1452 1451 1450 1450 1449 1449 1449 1448 1450 1449 1452 1455 1458 1462 1463 1466 1468 1471 1474 1475
1487 1481 1477 1474 1470 1467 1463 1460 1459 1458 1460 1459 1458 1459 1459 1461 1461 1462 1461 1459 1456 1452 1447 1444 1443 1441 1441 1441 1441 1442 1442 1443 1443 1444 1446 1449 1449 1455 1459 1462 1464 1467 1475
1487 1483 1480 1475 1471 1466 1464 1462 1461 1462 1461 1460 1459 1460 1459 1459 1458 1458 1456 1454 1452 1449 1445 1440 1435 1435 1435 1434 1434 1433 1434 1435 1438 1440 1442 1444 1444 1448 1452 1457 1459 1465 1467
1488 1485 1482 1478 1474 1470 1468 1466 1465 1464 1463 1463 1463 1461 1460 1458 1453 1454 1452 1451 1451 1447 1444 1441 1436 1431 1430 1429 1431 1432 1431 1431 1432 1434 1437 1439 1440 1443 1446 1451 1457 1459 1459
1490 1487 1485 1481 1477 1474 1472 1469 1469 1468 1467 1466 1465 1464 1463 1460 1457 1456 1456 1453 1451 1447 1444 1440 1438 1434 1432 1430 1430 1429 1428 1428 1429 1430 1432 1434 1436 1439 1442 1446 1450 1451 1450
1491 1489 1487 1484 1482 1479 1476 1474 1472 1471 1469 1468 1466 1464 1462 1460 1459 1458 1456 1453 1451 1448 1444 1442 1439 1437 1433 1431 1430 1428 1426 1427 1427 1428 1428 1429 1430 1432 1436 1438 1440 1441 1442
1491 1490 1488 1487 1485 1481 1479 1478 1476 1474 1472 1469 1466 1466 1464 1463 1462 1461 1457 1454 1452 1449 1446 1443 1441 1439 1435 1432 1429 1428 1427 1426 1425 1424 1424 1422 1424 1425 1429 1429 1429 1430 1431
1493 1491 1489 1487 1484 1481 1480 1478 1476 1475 1473 1471 1469 1467 1465 1464 1462 1460 1457 1455 1453 1450 1446 1443 1441 1439 1435 1432 1431 1429 1428 1425 1424 1422 1421 1421 1421 1420 1420 1421 1419 1419 1422
1491 1489 1488 1486 1484 1482 1481 1479 1477 1475 1473 1472 1470 1468 1466 1464 1462 1459 1457 1455 1452 1449 1446 1444 1442 1438 1436 1433 1431 1430 1427 1425 1423 1421 1419 1419 1418 1417 1416 1417 1416 1417 1418
1489 1488 1487 1485 1484 1482 1481 1480 1478 1476 1474 1473 1471 1469 1467 1464 1462 1459 1457 1455 1451 1449 1446 1443 1439 1437 1434 1431 1430 1428 1426 1424 1421 1419 1418 1416 1415 1413 1412 1412 1413 1413 1414
1487 1486 1485 1485 1483 1482 1480 1479 1477 1475 1473 1471 1470 1467 1464 1462 1460 1457 1454 1451 1448 1445 1442 1439 1436 1433 1430 1429 1427 1423 1420 1418 1417 1415 1414 1413 1411 1410 1409 1407 1408 1408 1407
1484 1484 1483 1482 1481 1480 1478 1477 1475 1474 1472 1470 1468 1466 1463 1461 1459 1456 1453 1451 1447 1443 1440 1436 1433 1431 1429 1426 1424 1420 1417 1414 1412 1409 1408 1407 1407 1405 1404 1403 1400 1400 1400
1481 1481 1480 1479 1478 1477 1477 1476 1475 1473 1472 1470 1467 1464 1462 1459 1456 1452 1449 1445 1442 1438 1434 1431 1428 1426 1423 1421 1418 1416 1414 1411 1409 1406 1404 1402 1400 1398 1397 1396 1394 1393 1392
1475 1475 1476 1476 1476 1476 1476 1475 1473 1471 1469 1468 1465 1462 1459 1455 1452 1448 1444 1441 1438 1434 1430 1427 1424 1421 1417 1415 1413 1410 1408 1406 1404 1402 1400 1398 1396 1394 1391 1388 1386 1385 1384
1472 1473 1474 1474 1474 1474 1473 1472 1470 1469 1468 1465 1462 1458 1454 1450 1447 1443 1440 1436 1433 1429 1426 1423 1419 1416 1413 1411 1409 1406 1403 1400 1397 1395 1393 1391 1389 1388 1386 1383 1381 1379 1376
1468 1469 1470 1471 1471 1470 1470 1469 1468 1466 1463 1461 1457 1454 1451 1447 1444 1440 1436 1433 1429 1424 1421 1417 1414 1411 1408 1406 1403 1401 1399 1395 1394 1392 1390 1387 1384 1381 1379 1377 1375 1372 1370
1465 1466 1467 1468 1468 1468 1467 1466 1464 1461 1458 1455 1452 1449 1446 1443 1439 1435 1431 1427 1423 1420 1416 1412 1409 1406 1402 1399 1398 1396 1394 1391 1388 1385 1383 1382 1379 1377 1375 1373 1370 1367 1364
1463 1465 1465 1466 1465 1465 1464 1462 1460 1457 1455 1451 1448 1445 1442 1437 1433 1429 1426 1422 1417 1413 1410 1407 1404 1401 1398 1394 1391 1390 1388 1386 1384 1381 1379 1375 1371 1369 1368 1366 1363 1359 1356
1461 1463 1464 1463 1463 1462 1461 1459 1456 1453 1450 1447 1444 1441 1437 1433 1429 1424 1420 1417 1413 1410 1406 1403 1399 1396 1393 1389 1386 1383 1382 1379 1377 1375 1373 1369 1366 1363 1361 1359 1355 1352 1349
1462 1463 1463 1462 1460 1457 1455 1452 1450 1446 1443 1441 1438 1434 1431 1427 1424 1420 1416 1413 1409 1405 1402 1398 1395 1392 1388 1385 1382 1379 1376 1374 1372 1369 1365 1362 1360 1358 1355 1353 1350 1346 1344
1453 1453 1451 1451 1452 1452 1450 1447 1445 1442 1440 1436 1433 1429 1425 1422 1418 1415 1411 1407 1404 1400 1397 1394 1390 1386 1382 1380 1377 1373 1369 1366 1364 1361 1357 1353 1352 1350 1348 1346 1344 1341 1338
1448 1450 1452 1452 1449 1448 1446 1443 1441 1438 1434 1431 1428 1424 1421 1417 1414 1409 1405 1403 1398 1395 1392 1389 1386 1381 1377 1374 1370 1366 1363 1359 1356 1352 1348 1345 1344 1342 1340 1339 1337 1335 1333